EDT,Max TemperatureF,Mean TemperatureF,Min TemperatureF,Max Dew PointF,MeanDew PointF,Min DewpointF,Max Humidity, Mean Humidity, Min Humidity, Max Sea Level PressureIn, Mean Sea Level PressureIn, Min Sea Level PressureIn, Max VisibilityMiles, Mean VisibilityMiles, Min VisibilityMiles, Max Wind SpeedMPH, Mean Wind SpeedMPH, Max Gust SpeedMPH,PrecipitationIn, CloudCover, Events, WindDirDegrees
2011-10-1,64,56,46,56,52,43,96,87,70,29.79,29.71,29.63,10,8,2,13,3,20,0.28,8,Rain,19
2011-10-2,62,54,46,50,46,43,100,87,50,29.90,29.81,29.73,10,8,1,16,7,22,0.15,7,Rain,55
2011-10-3,55,50,45,49,45,42,97,83,64,30.07,30.01,29.91,10,10,4,5,0,,0.08,7,Rain,220
2011-10-4,66,56,48,50,48,46,100,83,50,30.06,30.04,30.01,10,7,2,8,1,22,0.45,6,Rain,328
2011-10-5,71,61,45,51,46,38,89,66,35,30.31,30.13,30.06,10,10,10,15,3,24,0.00,1,,336
2011-10-6,69,52,35,43,36,26,100,74,21,30.38,30.34,30.27,10,8,1,9,1,,0.00,0,,264
2011-10-7,68,51,36,46,39,29,96,77,25,30.48,30.44,30.36,10,10,10,4,0,,0.00,0,,-1
2011-10-8,81,60,41,58,48,40,96,77,35,30.52,30.46,30.40,10,10,6,5,1,,0.00,0,,203
2011-10-9,84,65,46,58,49,44,100,75,27,30.46,30.39,30.31,10,6,1,8,1,,0.00,1,,276
2011-10-10,82,62,44,58,50,43,100,81,39,30.32,30.25,30.16,10,7,2,5,0,,0.01,0,,210
2011-10-11,75,62,51,56,53,49,100,78,46,30.24,30.18,30.14,10,8,2,7,1,,0.00,0,,55
2011-10-12,59,56,53,54,51,46,94,84,67,30.18,30.09,29.97,10,10,5,12,4,,0.05,5,Rain,45
2011-10-13,64,58,53,63,57,52,97,93,88,29.93,29.80,29.67,10,6,2,10,7,,0.03,8,Rain,42
2011-10-14,72,63,54,66,60,47,96,88,68,29.66,29.47,29.35,10,7,1,13,4,37,0.77,6,Rain,194
2011-10-15,62,54,46,46,41,37,90,65,44,29.76,29.63,29.54,10,10,10,15,6,32,0.00,4,,223
2011-10-16,64,55,46,45,40,37,68,52,37,29.88,29.77,29.63,10,10,10,9,6,20,0.00,4,,222
2011-10-17,64,54,43,51,39,32,93,57,30,29.80,29.73,29.66,10,10,8,14,6,23,0.01,1,Rain,225
2011-10-18,68,55,42,45,41,35,93,70,30,29.90,29.85,29.79,10,10,10,6,1,,0.00,1,,225
2011-10-19,57,52,48,56,53,45,96,91,74,29.85,29.64,29.40,10,6,2,17,7,25,0.56,8,Rain,30
2011-10-20,64,59,52,61,52,41,100,81,53,29.67,29.42,29.30,10,8,1,17,8,33,0.05,6,Rain,204
2011-10-21,57,52,50,41,39,38,71,63,53,30.02,29.88,29.69,10,10,10,8,6,,0.00,6,,226
2011-10-22,57,47,37,44,40,37,97,69,51,30.12,30.07,30.01,10,10,10,7,3,,0.00,5,,258
2011-10-23,60,50,41,45,40,35,93,72,42,30.15,30.11,30.06,10,10,7,7,1,,0.00,3,,192
2011-10-24,60,48,37,48,43,36,100,84,62,30.13,30.06,29.96,10,7,2,9,2,,0.00,3,,207
2011-10-25,62,49,37,46,36,27,100,71,27,30.08,30.03,29.99,10,8,2,12,2,18,0.00,0,,281
2011-10-26,61,50,39,50,44,37,96,82,57,30.06,29.86,29.73,10,10,10,5,1,,0.03,5,Rain,200
2011-10-27,54,46,37,52,42,32,100,90,79,29.97,29.72,29.63,10,6,2,14,6,21,0.65,8,Rain,35
2011-10-28,50,40,32,32,28,26,85,64,41,30.25,30.17,30.01,10,10,10,12,5,16,0.00,2,,10
2011-10-29,39,36,33,32,31,28,96,87,65,30.24,30.01,29.92,10,4,0,16,6,22,0.63,8,Fog-Snow,25
2011-10-30,46,37,28,31,28,25,96,72,46,30.35,30.16,29.96,10,10,8,10,5,22,0.00,1,,320
2011-10-31,48,36,23,33,27,21,100,80,43,30.40,30.36,30.32,10,8,4,5,0,,0.00,0,,220